Temperature
17 17 18 18 18 18 18 16 16 16 16 16 16 16 16 16 17 16 16 16 16 16 15 15 15 15 15 15 14 14 14 13 13 13 13 13 12 12 12 12 12 12 12 11
16 17 17 17 17 18 18 17 16 16 16 16 16 16 16 16 16 16 16 15 15 15 15 15 15 14 14 14 14 14 14 13 13 13 12 12 12 12 12 12 12 11 11 11
15 16 17 16 17 17 17 17 16 16 16 15 15 15 16 16 16 16 16 15 15 15 15 15 14 14 14 14 14 13 13 13 13 12 12 12 12 12 11 11 11 11 11 11
13 15 16 15 16 17 17 16 16 16 15 16 16 16 16 16 16 16 16 15 15 15 15 14 14 14 14 14 13 13 13 13 12 12 12 12 11 11 11 11 11 11 11 11
12 14 14 15 16 17 16 16 15 15 15 15 16 15 15 16 16 16 16 16 15 15 15 14 14 14 14 14 13 13 13 12 12 12 12 11 11 11 11 11 11 10 10 10
12 13 14 15 16 17 16 15 15 15 14 14 14 12 13 15 15 16 16 15 15 15 14 14 14 14 13 13 13 13 12 12 12 12 11 11 11 11 10 10 10 10 10 10
12 12 13 14 15 16 15 14 15 15 15 14 14 14 15 15 15 15 15 15 15 14 14 14 14 13 13 13 12 12 12 12 12 11 11 11 11 10 10 10 10 10 9 9
11 12 12 14 15 14 14 15 15 15 15 15 15 15 15 15 15 15 15 14 14 14 14 13 13 13 13 12 12 12 12 12 11 11 11 10 10 10 10 10 9 9 9 9
11 12 13 14 15 15 15 15 15 15 15 15 15 14 14 14 14 14 14 14 14 13 13 13 13 13 12 12 12 12 11 11 11 11 10 10 10 10 10 9 9 9 9 9
11 11 13 14 15 15 15 15 15 15 15 15 14 14 14 14 14 13 13 13 13 13 13 13 12 12 12 12 11 11 11 11 11 10 10 10 10 9 9 9 9 9 8 8
10 11 12 13 14 14 14 14 14 14 14 14 14 14 13 13 13 13 13 13 13 12 12 12 12 12 12 11 11 11 11 10 10 10 10 9 9 9 9 8 8 8 8 8
10 12 11 13 13 14 14 14 14 14 13 13 13 13 13 13 13 12 12 12 12 12 12 12 11 11 11 11 11 10 10 10 10 9 9 9 9 8 8 8 8 8 8 7
13 13 13 13 13 13 13 13 13 13 13 13 13 13 13 12 12 12 12 12 11 11 11 11 11 11 11 11 10 10 10 9 9 9 9 9 8 8 8 8 7 7 7 7
12 12 12 12 12 12 12 12 12 12 12 12 12 12 12 12 12 12 11 11 11 11 11 11 10 10 10 10 10 9 9 9 9 9 8 8 8 8 7 7 7 7 7 7
12 12 12 12 12 12 12 12 12 12 12 12 12 12 11 11 11 11 11 11 10 10 10 10 10 10 10 9 9 9 9 9 8 8 8 8 7 7 7 7 7 7 6 6
11 12 12 11 11 11 11 11 11 11 11 11 11 11 11 11 11 11 10 10 10 10 10 10 9 9 9 9 9 8 8 8 8 8 7 7 7 7 7 7 6 6 6 6
11 11 11 11 11 11 11 11 11 11 11 11 11 11 10 10 10 10 10 10 10 9 9 9 9 9 9 8 8 8 8 7 7 7 7 7 6 6 6 6 6 6 6 6
11 11 11 11 11 10 10 11 11 10 10 10 10 10 10 10 9 9 9 9 9 9 9 9 8 8 8 8 8 7 7 7 7 7 6 6 6 6 6 6 6 6 6 6
10 10 10 10 10 10 10 10 10 10 10 10 10 10 10 9 9 9 9 9 8 8 8 8 8 8 8 7 7 7 7 7 6 6 6 6 6 6 6 6 5 5 5 5
10 10 10 10 10 10 10 10 10 10 9 9 9 9 9 9 8 8 8 8 8 8 8 7 7 7 7 7 7 7 6 6 6 6 6 6 6 6 5 5 5 5 5 5
9 10 9 9 9 9 9 9 9 9 9 9 9 9 8 8 8 8 8 8 8 7 7 7 7 7 6 6 6 6 6 6 6 5 5 5 5 5 5 5 5 5 4 4
9 9 9 9 9 9 9 9 8 8 8 8 8 8 8 8 7 7 7 7 7 7 6 6 6 6 6 6 6 5 5 5 5 5 5 5 5 5 5 4 4 4 4 4
9 9 8 8 8 8 8 8 8 8 8 8 7 7 7 7 7 7 7 7 7 6 6 6 6 6 5 5 5 5 5 5 5 5 4 4 4 4 4 4 4 4 4 4
8 8 8 8 8 8 7 7 7 7 7 7 7 7 7 7 6 6 6 6 6 6 6 5 5 5 5 5 5 5 5 4 4 4 4 4 4 4 4 4 4 4 3 3
7 7 7 7 7 7 7 7 7 6 6 6 6 6 6 6 6 6 6 6 6 5 5 5 5 5 4 4 4 4 4 4 4 3 3 3 3 3 3 3 3 3 3 3
7 7 7 6 6 6 6 6 6 6 6 6 6 5 5 5 5 5 5 5 5 5 5 5 4 4 4 4 4 4 3 3 3 3 3 3 3 3 3 3 3 3 2 2
6 6 6 6 6 6 6 6 5 5 5 5 5 5 4 4 4 4 4 5 4 4 4 4 4 4 3 3 3 3 3 3 3 2 2 2 2 2 2 2 2 2 2 2
Wind_Speed
5 5 3 3 4 4 4 6 7 7 6 7 6 5 4 3 4 4 5 5 5 5 4 3 3 2 3 3 3 3 4 4 3 2 2 2 2 1 1 1 2 2 1 1
3 3 2 4 5 5 5 4 5 4 5 5 3 3 3 3 4 4 5 5 5 5 5 4 4 3 3 3 3 3 4 3 3 2 2 2 2 1 1 1 1 1 1 1
3 4 3 4 5 4 3 2 5 6 6 3 2 4 4 4 4 4 5 5 5 5 5 5 5 5 4 4 3 4 3 3 3 3 2 2 2 2 1 1 1 1 1 1
1 2 4 6 3 1 1 1 1 2 2 5 5 4 3 3 5 4 4 4 4 4 4 4 4 4 3 3 4 4 4 3 3 2 2 2 2 2 2 1 1 1 1 2
2 2 5 6 4 1 2 2 2 2 1 1 2 3 3 1 3 4 4 4 4 5 4 4 4 4 4 3 3 3 3 3 3 3 3 3 3 3 2 1 1 1 1 2
3 3 5 5 6 4 2 2 3 1 2 1 3 1 4 3 1 1 2 3 3 3 3 3 3 4 4 3 3 4 4 4 4 3 3 3 3 2 1 1 1 1 1 1
4 4 6 6 6 3 2 5 3 2 2 3 4 5 4 2 1 1 3 3 3 4 4 4 4 5 4 3 4 4 4 3 3 3 3 3 3 2 2 1 1 1 1 1
4 4 7 4 1 2 5 3 2 2 2 2 2 1 1 2 2 1 2 2 3 3 3 3 4 5 4 4 4 3 3 3 3 3 3 2 2 2 2 2 1 0 0 1
6 6 5 2 3 3 3 2 2 2 2 2 2 2 2 2 2 1 3 3 3 4 3 2 3 5 5 4 3 2 3 3 2 2 2 2 3 2 2 2 1 1 1 1
3 5 4 4 2 1 2 2 2 2 3 3 3 3 2 2 2 1 2 3 3 3 3 3 3 4 4 4 3 4 3 3 3 3 2 1 2 2 2 2 2 2 2 2
4 5 4 4 3 3 2 1 1 1 2 3 3 3 3 3 3 3 2 2 3 4 5 4 3 3 3 3 4 4 3 3 3 3 3 2 1 1 2 3 4 4 3 3
7 7 5 6 5 4 2 2 2 1 2 2 3 4 3 3 3 2 3 3 3 3 4 4 3 3 2 3 4 4 3 3 3 3 2 2 2 0 1 1 3 4 4 3
7 6 6 7 5 4 3 3 3 2 3 3 2 2 3 2 2 2 2 3 4 4 4 4 3 3 3 3 4 4 4 3 3 3 3 3 2 2 1 2 2 2 2 2
5 3 4 5 5 4 3 3 3 2 2 2 2 2 2 2 2 2 3 4 4 3 3 3 3 3 3 3 3 3 3 3 3 3 4 3 3 3 2 2 1 2 3 3
6 5 6 5 4 3 2 1 1 2 2 2 2 2 2 2 3 4 4 3 2 2 3 3 3 3 3 3 3 3 3 3 3 3 3 3 3 2 2 2 2 1 1 2
5 3 3 3 4 3 2 1 2 3 2 2 2 3 3 3 3 3 3 3 3 3 3 3 4 4 3 3 3 3 3 3 2 2 2 2 2 2 2 2 2 2 2 2
4 4 4 4 4 4 3 3 4 4 3 3 3 3 2 2 2 2 3 3 4 4 4 4 4 3 3 3 4 3 2 3 3 2 3 3 3 3 3 3 3 3 3 3
6 6 6 6 5 5 4 3 3 3 4 4 3 2 2 3 4 4 4 3 2 2 3 3 3 3 3 3 3 3 3 3 3 3 3 3 3 3 3 3 3 3 2 2
5 5 5 4 4 3 3 3 3 3 4 3 3 4 4 4 4 4 3 2 2 3 4 3 3 3 3 3 3 3 3 3 2 3 3 4 3 3 3 3 3 3 3 2
3 3 3 2 2 2 2 2 2 2 3 3 3 3 3 3 3 3 3 3 4 4 4 3 2 3 3 4 3 3 3 3 3 3 3 3 3 3 3 4 4 3 3 3
1 2 2 2 2 2 2 2 2 2 2 3 3 4 4 4 3 3 3 3 3 3 3 3 2 2 3 3 3 2 3 3 3 3 3 3 4 4 4 4 4 4 4 3
1 1 1 1 1 1 2 1 1 2 2 2 2 2 2 2 3 3 4 4 3 3 2 2 2 3 3 3 2 3 3 3 3 3 3 3 4 4 4 4 4 4 4 3
1 1 1 1 2 1 2 1 1 1 2 2 2 3 3 3 3 3 3 3 2 4 2 3 4 4 4 2 3 3 3 3 3 3 3 3 4 4 4 4 4 4 4 3
2 2 2 2 1 0 1 2 2 2 2 2 2 2 2 2 2 3 3 3 4 4 3 4 5 5 3 2 3 3 3 3 3 3 3 3 3 3 3 3 3 3 3 4
3 2 2 1 1 2 2 2 1 1 1 1 2 2 2 2 2 3 2 3 4 4 3 4 5 4 2 2 3 3 3 3 3 3 3 3 3 3 3 3 3 4 4 4
2 2 2 2 2 2 2 1 1 1 1 1 2 2 1 1 1 1 1 2 3 3 3 3 3 3 2 2 3 3 3 3 3 3 3 3 3 3 3 4 4 4 4 4
2 1 1 1 2 2 1 1 1 2 2 2 2 2 1 1 1 1 1 1 1 1 1 1 2 2 2 2 2 2 2 2 2 3 3 3 3 3 4 5 4 4 4 4
Wind_Direction
239 251 245 264 270 252 199 190 199 219 211 233 221 200 189 165 150 141 150 157 161 165 173 169 159 158 161 170 173 163 149 148 161 174 171 148 141 155 152 152 150 152 141 137
300 296 305 293 277 257 238 211 203 202 237 242 203 155 141 154 153 153 163 166 168 169 169 173 177 173 172 181 178 158 154 164 163 144 141 157 165 163 153 157 153 137 151 160
278 307 352 287 268 242 220 222 192 211 228 195 149 160 174 178 171 172 179 176 173 173 175 180 184 179 182 188 165 147 154 165 170 162 159 179 176 157 170 189 154 148 182 170
256 5 237 248 287 270 187 273 200 171 189 177 176 181 186 176 172 181 182 180 177 177 181 186 179 173 169 167 161 158 162 176 182 175 179 185 166 180 203 208 191 194 199 206
149 220 274 292 298 277 194 282 345 130 120 109 100 58 353 287 180 188 186 183 188 185 177 172 167 164 146 154 159 160 177 194 195 183 181 183 183 192 200 192 211 213 204 199
149 194 238 257 293 298 113 277 302 150 148 140 99 96 269 275 216 150 163 161 164 156 142 149 169 154 140 148 165 193 206 207 202 187 182 192 193 189 201 186 201 205 215 215
187 220 257 267 299 15 152 242 276 199 173 163 180 208 230 226 210 183 168 163 151 142 153 175 173 156 156 170 205 217 208 191 187 186 183 186 182 172 168 165 168 207 230 257
178 208 253 284 34 157 219 252 241 209 202 189 218 207 181 179 191 190 167 165 157 155 174 183 172 164 178 207 220 207 178 172 177 182 189 182 165 173 171 165 159 197 239 288
193 216 251 270 216 221 198 211 231 222 244 220 207 207 211 205 196 204 190 181 174 170 177 194 194 182 193 215 203 173 164 177 186 184 193 178 172 175 170 169 174 205 214 243
245 264 274 282 276 262 225 223 242 230 225 208 205 201 202 194 209 216 215 186 176 168 181 213 223 210 200 199 183 165 171 185 185 180 183 174 171 172 174 188 197 206 217 235
256 271 296 289 273 272 288 298 307 306 225 193 173 206 203 205 216 222 226 209 188 187 200 215 212 216 211 188 171 171 178 188 189 186 183 177 179 190 193 206 206 206 219 218
239 241 228 253 259 265 258 252 233 237 306 259 201 200 203 215 224 221 224 209 209 208 206 211 204 210 213 190 176 174 184 196 191 181 186 181 178 273 278 242 236 220 214 213
236 252 245 257 255 249 234 237 237 220 230 245 251 212 200 223 230 229 234 221 215 214 208 205 204 206 208 193 184 184 192 199 196 189 193 194 192 201 258 332 335 277 258 248
247 260 267 263 255 252 251 250 244 240 234 219 227 230 213 237 247 242 245 232 222 213 209 201 201 216 216 197 185 187 191 202 200 198 200 204 207 210 210 215 269 316 310 286
255 240 238 255 264 267 270 270 258 258 255 273 238 203 200 221 241 250 255 230 201 201 210 205 212 232 223 189 180 186 190 200 200 200 202 205 206 204 208 216 219 254 313 322
254 260 242 241 245 256 252 223 225 237 230 236 229 218 220 226 238 253 250 206 188 207 220 218 225 232 215 189 185 193 204 215 201 198 198 201 202 201 206 211 209 226 245 266
233 249 245 247 245 247 242 231 221 228 227 227 231 226 215 212 235 253 252 228 209 216 220 219 228 228 205 194 189 198 203 212 206 204 205 205 203 206 210 209 207 220 241 248
228 231 230 224 228 233 239 239 227 225 228 233 222 204 202 207 220 235 242 234 227 250 252 240 231 215 203 199 195 195 199 206 207 215 217 211 210 212 213 211 213 221 243 257
246 235 231 226 222 212 219 233 234 233 231 210 199 209 219 224 224 230 230 212 213 237 252 242 227 198 195 203 199 192 197 206 214 219 218 215 214 213 214 209 215 221 220 224
247 238 231 239 234 216 228 240 239 239 229 208 203 213 224 232 226 223 216 219 229 231 232 228 213 203 208 212 207 197 201 207 212 217 218 215 214 216 216 213 214 218 223 226
263 265 258 255 249 241 239 228 220 243 245 216 207 216 224 232 227 212 203 235 259 246 223 228 219 223 222 223 212 195 199 208 215 219 221 220 221 223 223 218 216 220 226 231
289 278 266 272 260 274 276 254 236 242 243 240 235 225 223 234 238 234 227 225 229 234 225 222 224 236 242 233 201 198 204 209 216 222 223 222 223 227 228 222 220 224 226 228
267 254 241 234 230 252 292 290 265 236 232 234 235 238 240 242 229 220 247 248 221 228 229 225 237 249 251 225 205 202 206 213 219 222 223 224 224 225 226 222 222 222 219 222
266 265 255 246 230 275 297 291 285 274 265 261 254 245 236 246 265 253 243 237 233 235 231 232 241 253 252 214 207 209 215 219 223 225 225 224 225 223 221 219 219 221 222 223
243 254 259 250 255 260 263 286 313 325 327 307 296 288 268 234 240 259 258 244 246 246 243 242 247 252 231 214 212 220 225 223 227 228 226 220 217 217 217 218 219 223 226 229
248 250 247 238 236 242 245 249 268 268 265 292 306 303 308 310 286 276 278 269 264 264 254 245 239 238 221 216 219 224 226 232 241 236 227 217 213 212 215 219 225 228 232 231
279 286 291 302 286 257 236 229 240 256 243 232 270 286 289 310 326 317 313 301 293 285 270 254 242 232 239 236 230 229 229 226 224 224 222 217 216 220 221 219 223 225 224 223
Height
1507 1503 1502 1503 1501 1500 1503 1508 1514 1511 1509 1504 1501 1500 1500 1500 1501 1501 1502 1503 1503 1504 1506 1507 1507 1508 1509 1509 1510 1511 1511 1510 1511 1511 1511 1511 1511 1512 1512 1512 1511 1511 1511 1511
1506 1501 1501 1502 1500 1499 1499 1500 1504 1504 1504 1498 1498 1498 1499 1500 1500 1500 1500 1501 1502 1503 1504 1505 1505 1506 1507 1507 1508 1508 1508 1508 1509 1509 1509 1509 1509 1509 1509 1509 1509 1509 1509 1509
1514 1505 1503 1508 1500 1497 1497 1496 1498 1503 1500 1496 1497 1497 1497 1498 1498 1499 1499 1500 1501 1501 1502 1503 1504 1504 1504 1505 1506 1506 1506 1506 1506 1506 1507 1507 1507 1507 1507 1507 1507 1507 1507 1507
1516 1511 1516 1506 1494 1493 1494 1494 1493 1494 1494 1494 1494 1495 1495 1496 1496 1497 1498 1498 1499 1499 1500 1501 1502 1502 1503 1503 1503 1503 1504 1504 1504 1504 1504 1504 1504 1504 1505 1505 1505 1505 1504 1504
1519 1518 1512 1502 1493 1492 1494 1496 1494 1493 1494 1494 1494 1494 1495 1495 1495 1495 1496 1496 1497 1497 1498 1499 1500 1500 1501 1500 1500 1501 1501 1501 1501 1501 1501 1501 1501 1501 1502 1502 1502 1502 1502 1501
1517 1517 1517 1504 1492 1489 1492 1498 1493 1492 1493 1493 1493 1499 1497 1494 1494 1493 1494 1494 1495 1495 1496 1496 1497 1498 1498 1498 1498 1498 1498 1498 1499 1498 1498 1498 1498 1499 1499 1499 1499 1499 1499 1499
1515 1516 1508 1497 1491 1490 1502 1501 1492 1491 1491 1491 1492 1493 1493 1492 1492 1492 1492 1492 1493 1493 1493 1494 1495 1495 1495 1495 1495 1495 1496 1496 1496 1496 1496 1496 1496 1496 1496 1496 1496 1496 1496 1496
1513 1515 1510 1492 1491 1495 1495 1491 1490 1489 1489 1489 1490 1489 1489 1489 1490 1489 1489 1490 1490 1491 1491 1492 1492 1492 1492 1492 1493 1493 1493 1493 1493 1493 1493 1493 1493 1493 1494 1493 1493 1493 1493 1493
1503 1503 1494 1491 1490 1490 1490 1489 1488 1488 1487 1487 1488 1487 1487 1487 1487 1487 1487 1487 1488 1488 1488 1489 1489 1489 1489 1489 1490 1490 1490 1490 1490 1490 1490 1490 1490 1490 1490 1490 1490 1490 1490 1490
1497 1493 1490 1489 1488 1488 1488 1487 1487 1486 1486 1485 1485 1484 1484 1484 1485 1485 1485 1485 1485 1485 1485 1486 1486 1486 1486 1487 1487 1487 1487 1487 1487 1487 1487 1487 1488 1488 1487 1487 1487 1487 1487 1486
1495 1491 1489 1487 1487 1486 1485 1485 1484 1483 1483 1482 1482 1482 1482 1482 1482 1482 1482 1482 1482 1482 1482 1482 1482 1482 1483 1483 1483 1483 1483 1483 1484 1484 1484 1484 1485 1485 1485 1485 1485 1485 1484 1484
1492 1487 1487 1485 1484 1484 1483 1482 1481 1480 1480 1480 1479 1479 1479 1479 1479 1479 1479 1479 1479 1479 1479 1479 1479 1479 1479 1480 1480 1480 1480 1480 1480 1480 1481 1481 1481 1482 1482 1482 1482 1482 1481 1481
1484 1483 1483 1481 1480 1480 1479 1479 1478 1478 1477 1477 1476 1476 1476 1476 1476 1476 1476 1476 1476 1476 1475 1475 1475 1475 1476 1476 1476 1476 1476 1476 1477 1477 1477 1477 1477 1477 1477 1478 1478 1478 1478 1477
1480 1480 1479 1477 1476 1476 1475 1475 1475 1474 1474 1474 1473 1473 1473 1472 1472 1472 1472 1472 1472 1472 1472 1472 1472 1472 1472 1472 1472 1472 1473 1473 1473 1473 1473 1474 1474 1474 1474 1473 1473 1473 1474 1474
1476 1476 1475 1473 1473 1472 1471 1471 1470 1470 1470 1470 1470 1470 1469 1469 1469 1468 1468 1468 1468 1468 1468 1468 1468 1468 1468 1468 1468 1468 1469 1469 1469 1469 1470 1470 1470 1470 1470 1470 1470 1470 1470 1470
1472 1471 1470 1470 1469 1468 1467 1467 1467 1466 1466 1466 1466 1466 1466 1466 1465 1465 1465 1464 1464 1463 1464 1464 1463 1464 1464 1464 1464 1464 1465 1465 1465 1465 1465 1466 1466 1466 1466 1466 1466 1466 1466 1466
1467 1466 1466 1465 1465 1464 1464 1463 1463 1463 1463 1463 1463 1462 1462 1462 1462 1461 1461 1461 1461 1460 1460 1460 1460 1460 1460 1460 1460 1460 1460 1461 1461 1461 1461 1461 1462 1462 1462 1462 1462 1463 1463 1463
1463 1462 1462 1462 1461 1460 1460 1460 1460 1459 1459 1459 1459 1459 1458 1458 1458 1457 1457 1457 1457 1457 1456 1456 1456 1456 1456 1456 1456 1456 1456 1456 1456 1456 1456 1457 1457 1458 1458 1458 1458 1458 1458 1459
1459 1459 1459 1458 1458 1457 1457 1456 1456 1456 1456 1456 1455 1455 1455 1455 1454 1454 1453 1453 1452 1452 1452 1452 1452 1452 1452 1452 1452 1452 1452 1452 1451 1452 1452 1453 1453 1453 1454 1454 1454 1454 1454 1454
1455 1455 1455 1455 1454 1454 1454 1454 1453 1453 1453 1452 1452 1451 1451 1451 1451 1450 1450 1449 1449 1449 1449 1449 1448 1448 1448 1448 1448 1447 1447 1447 1447 1447 1447 1448 1448 1448 1449 1449 1449 1449 1449 1449
1452 1452 1452 1452 1451 1451 1451 1451 1450 1450 1449 1449 1449 1448 1447 1447 1447 1447 1446 1445 1446 1446 1445 1445 1445 1444 1444 1444 1444 1443 1443 1443 1443 1443 1443 1443 1443 1444 1444 1444 1444 1444 1444 1445
1450 1450 1449 1449 1448 1448 1448 1448 1447 1447 1446 1446 1445 1445 1444 1444 1444 1443 1443 1443 1442 1442 1442 1441 1441 1440 1440 1440 1440 1439 1439 1439 1438 1438 1438 1439 1439 1439 1439 1439 1439 1439 1440 1440
1448 1447 1447 1446 1446 1445 1445 1445 1444 1444 1443 1442 1442 1442 1441 1441 1440 1440 1439 1439 1439 1438 1438 1437 1437 1437 1436 1436 1435 1435 1435 1434 1434 1434 1434 1434 1434 1434 1434 1434 1434 1435 1435 1435
1445 1445 1444 1444 1443 1442 1442 1441 1441 1441 1440 1439 1439 1439 1438 1437 1436 1436 1436 1435 1435 1435 1434 1433 1433 1433 1432 1431 1431 1430 1430 1430 1430 1429 1429 1429 1429 1429 1429 1429 1429 1430 1430 1430
1442 1442 1442 1441 1440 1440 1439 1439 1438 1437 1437 1436 1436 1436 1435 1434 1433 1432 1432 1431 1431 1430 1429 1429 1429 1428 1427 1427 1426 1426 1426 1425 1425 1425 1424 1424 1424 1424 1424 1425 1425 1425 1425 1425
1439 1439 1438 1438 1438 1437 1436 1436 1435 1434 1434 1433 1433 1432 1431 1431 1430 1429 1428 1427 1426 1426 1425 1424 1424 1424 1423 1422 1422 1421 1421 1420 1420 1420 1419 1419 1419 1419 1420 1420 1420 1420 1420 1420
1436 1436 1435 1435 1434 1434 1433 1433 1432 1431 1431 1430 1429 1429 1428 1427 1426 1425 1424 1423 1422 1422 1421 1420 1420 1419 1419 1418 1417 1417 1417 1416 1416 1415 1415 1415 1415 1414 1414 1414 1415 1415 1415 1415